SCP
2 2 3 4 5 6 7 7 7 8 7 6 5 5 5 4 3 3 2 2 2 2 2 2 1 1 1 1 0 0 0 0 0 0 0 0 0 0 0 0 0 0 0
2 3 3 4 5 6 7 7 8 8 7 6 5 5 4 4 3 3 2 2 2 1 1 1 1 1 1 0 0 0 0 0 0 0 0 0 0 0 0 0 0 0 0
3 3 4 5 6 7 7 7 8 8 7 6 5 5 4 3 3 2 1 1 1 1 1 1 0 0 0 0 0 0 0 0 0 0 0 0 0 0 0 0 0 0 0
4 4 5 6 7 8 8 8 8 7 6 6 5 4 3 3 2 1 1 1 0 0 0 0 0 0 0 0 0 0 0 0 0 0 0 0 0 0 0 0 0 0 0
4 4 5 6 7 8 8 8 7 6 5 5 4 3 3 2 1 1 1 0 0 0 0 0 0 0 0 0 0 0 0 0 0 0 0 0 0 0 0 0 0 0 0
3 4 4 5 6 6 6 6 5 4 4 3 3 2 2 1 1 0 0 0 0 0 0 0 0 0 0 0 0 0 0 0 0 0 0 0 0 0 0 0 0 0 0
3 3 3 3 4 4 4 3 3 2 2 2 1 1 1 1 0 0 0 0 0 0 0 0 0 0 0 0 0 0 0 0 0 0 0 0 0 0 0 0 0 0 0
1 2 2 2 2 2 2 2 1 1 1 1 1 0 0 0 0 0 0 0 0 0 0 0 0 0 0 0 0 0 0 0 0 0 0 0 0 0 0 0 0 0 0
1 1 1 1 1 1 1 1 0 0 0 0 0 0 0 0 0 0 0 0 0 0 0 0 0 0 0 0 0 0 0 0 0 0 0 0 0 0 0 0 0 0 0
0 0 0 0 0 0 0 0 0 0 0 0 0 0 0 0 0 0 0 0 0 0 0 0 0 0 0 0 0 0 0 0 0 0 0 0 0 0 0 0 0 0 0
0 0 0 0 0 0 0 0 0 0 0 0 0 0 0 0 0 0 0 0 0 0 0 0 0 0 0 0 0 0 0 0 0 0 0 0 0 0 0 0 0 0 0
0 0 0 0 0 0 0 0 0 0 0 0 0 0 0 0 0 0 0 0 0 0 0 0 0 0 0 0 0 0 0 0 0 0 0 0 0 0 0 0 0 0 0
0 0 0 0 0 0 0 0 0 0 0 0 0 0 0 0 0 0 0 0 0 0 0 0 0 0 0 0 0 0 0 0 0 0 0 0 0 0 0 0 0 0 0
0 0 0 0 0 0 0 0 0 0 0 0 0 0 0 0 0 0 0 0 0 0 0 0 0 0 0 0 0 0 0 0 0 0 0 0 0 0 0 0 0 0 0
0 0 0 0 0 0 0 0 0 0 0 0 0 0 0 0 0 0 0 0 0 0 0 0 0 0 0 0 0 0 0 0 0 0 0 0 0 0 0 0 0 0 0
0 0 0 0 0 0 0 0 0 0 0 0 0 0 0 0 0 0 0 0 0 0 0 0 0 0 0 0 0 0 0 0 0 0 0 0 0 0 0 0 0 0 0
0 0 0 0 0 0 0 0 0 0 0 0 0 0 0 0 0 0 0 0 0 0 0 0 0 0 0 0 0 0 0 0 0 0 0 0 0 0 0 0 0 0 0
0 0 0 0 0 0 0 0 0 0 0 0 0 0 0 0 0 0 0 0 0 0 0 0 0 0 0 0 0 0 0 0 0 0 0 0 0 0 0 0 0 0 0
0 0 0 0 0 0 0 0 0 0 0 0 0 0 0 0 0 0 0 0 0 0 0 0 0 0 0 0 0 0 0 0 0 0 0 0 0 0 0 0 0 0 0
0 0 0 0 0 0 0 0 0 0 0 0 0 0 0 0 0 0 0 0 0 0 0 0 0 0 0 0 0 0 0 0 0 0 0 0 0 0 0 0 0 0 0
0 0 0 0 0 0 0 0 0 0 0 0 0 0 0 0 0 0 0 0 0 0 0 0 0 0 0 0 0 0 0 0 0 0 0 0 0 0 0 0 0 0 0
0 0 0 0 0 0 0 0 0 0 0 0 0 0 0 0 0 0 0 0 0 0 0 0 0 0 0 0 0 0 0 0 0 0 0 0 0 0 0 0 0 0 0
0 0 0 0 0 0 0 0 0 0 0 0 0 0 0 0 0 0 0 0 0 0 0 0 0 0 0 0 0 0 0 0 0 0 0 0 0 0 0 0 0 0 0
0 0 0 0 0 0 0 0 0 0 0 0 0 0 0 0 0 0 0 0 0 0 0 0 0 0 0 0 0 0 0 0 0 0 0 0 0 0 0 0 0 0 0
0 0 0 0 0 0 0 0 0 0 0 0 0 0 0 0 0 0 0 0 0 0 0 0 0 0 0 0 0 0 0 0 0 0 0 0 0 0 0 0 0 0 0
0 0 0 0 0 0 0 0 0 0 0 0 0 0 0 0 0 0 0 0 0 0 0 0 0 0 0 0 0 0 0 0 0 0 0 0 0 0 0 0 0 0 0
Wind_Speed
4 5 10 11 12 11 12 12 11 12 10 8 8 7 6 5 4 4 4 4 5 4 3 3 3 2 1 2 2 1 1 1 2 1 2 2 3 2 1 0 2 2 1
6 6 7 9 10 11 11 11 11 12 10 7 6 5 6 5 5 5 6 6 6 5 4 4 3 2 2 3 2 1 1 2 1 0 1 2 2 1 2 2 2 2 1
7 7 7 5 9 8 9 11 11 11 9 9 7 6 5 5 4 5 5 6 6 6 5 5 4 4 3 3 3 2 2 1 1 2 1 1 2 3 1 2 2 2 1
10 10 11 8 6 6 6 7 9 9 8 9 9 10 7 6 5 6 6 7 7 7 7 7 7 6 5 5 4 4 3 2 1 1 2 1 2 1 3 3 3 3 3
14 13 12 11 10 9 8 8 9 8 8 7 8 8 7 7 7 8 9 8 8 8 8 7 7 7 6 6 6 5 5 3 3 2 1 1 1 1 2 4 4 3 3
15 14 14 14 13 13 12 12 12 11 9 9 8 8 10 10 10 9 9 7 6 7 8 9 8 7 6 6 5 5 6 4 4 2 2 1 1 1 2 3 4 4 4
15 15 15 14 14 14 14 13 14 13 12 12 11 10 11 11 10 9 8 8 6 6 7 8 7 6 6 5 5 5 4 4 4 2 2 2 2 2 2 3 4 5 4
15 14 13 13 13 14 13 13 14 14 13 13 12 11 11 9 8 9 8 8 7 7 7 7 7 6 5 6 4 4 3 3 3 3 2 2 2 2 3 3 4 6 5
14 13 13 13 13 13 13 13 14 14 14 13 13 13 12 11 10 9 9 8 7 7 8 7 6 6 6 5 4 3 3 3 2 3 3 3 3 3 3 3 4 5 7
13 12 11 12 11 12 12 13 14 14 13 12 11 11 12 11 10 10 10 9 8 7 7 7 6 5 5 4 3 2 2 2 3 2 3 3 3 4 4 4 4 5 6
12 11 10 10 11 12 12 13 13 14 13 13 12 12 11 11 11 10 10 8 7 6 6 6 5 4 4 4 3 4 3 4 4 4 5 5 5 4 4 4 5 5 5
12 11 11 11 11 12 11 12 12 12 12 12 12 11 11 10 10 10 8 7 6 6 5 5 4 4 4 4 4 5 5 5 5 5 5 5 5 5 5 4 5 5 5
12 11 11 11 11 11 11 11 11 11 11 12 11 10 10 10 9 8 7 7 6 6 5 4 4 4 4 5 6 7 6 6 5 5 5 6 5 5 4 5 5 5 6
12 11 10 10 10 10 10 10 10 10 11 11 11 10 9 9 8 8 7 6 5 5 4 4 5 5 7 9 10 9 8 7 6 6 6 6 6 5 5 6 6 6 6
12 11 11 9 9 10 10 10 10 10 10 10 10 9 8 8 7 7 6 6 5 5 4 5 5 5 7 8 9 8 9 9 8 7 6 7 8 8 5 6 5 7 7
12 11 11 10 9 9 10 10 9 9 8 9 9 8 7 7 6 6 6 5 5 5 5 6 6 6 7 7 9 8 8 9 9 8 7 8 7 7 6 8 10 10 10
12 11 10 9 9 9 8 8 8 7 8 8 8 7 6 6 6 6 6 5 5 4 4 5 4 5 6 6 7 10 9 9 7 7 6 8 8 7 6 9 12 12 14
11 10 8 8 8 7 7 6 6 7 7 7 6 6 6 6 5 5 4 4 3 3 3 3 4 3 5 3 5 12 9 8 6 7 7 7 6 5 6 10 11 10 10
9 8 7 7 7 6 6 5 6 6 6 6 5 5 5 5 4 4 3 3 3 3 3 3 4 3 3 1 4 9 9 7 7 7 8 7 6 5 8 10 11 11 10
8 7 6 7 7 5 4 5 5 5 5 5 5 5 5 4 3 3 3 3 2 3 3 3 3 3 2 2 2 7 7 8 8 7 7 6 5 8 10 9 10 11 11
8 7 7 6 5 5 4 5 5 5 5 4 4 4 2 1 3 2 2 2 2 2 3 3 3 2 2 1 2 5 6 8 9 8 7 5 6 11 13 11 9 11 11
8 7 6 6 5 4 5 6 5 4 4 3 3 2 1 2 3 2 2 2 2 3 2 2 3 2 2 2 2 6 8 9 9 8 7 8 13 15 16 11 10 14 12
7 6 7 6 5 4 4 5 4 3 3 2 2 1 1 1 2 2 2 2 2 3 3 4 4 4 3 3 5 8 11 11 8 7 11 14 16 15 10 9 12 10 6
7 6 7 7 6 5 5 4 4 3 2 1 0 0 0 0 1 1 2 3 5 5 5 5 5 5 4 6 7 8 9 10 9 9 12 14 13 9 8 8 6 4 4
6 6 6 6 6 5 4 4 3 1 1 1 2 1 0 0 1 2 4 4 6 5 5 6 6 6 6 7 9 7 7 8 8 10 8 6 6 6 6 5 5 4 4
7 6 6 6 5 5 4 3 2 1 2 2 3 2 1 1 1 3 4 6 5 5 4 3 4 4 5 8 10 11 12 13 12 8 6 7 6 6 6 6 6 5 4
Wind_Direction
170 134 131 134 146 155 158 161 163 155 156 162 167 169 160 144 129 114 109 103 107 111 107 107 109 117 128 118 114 120 119 79 43 348 300 263 229 237 199 281 311 301 283
48 77 102 128 145 157 158 157 162 159 163 161 157 151 138 126 109 90 80 80 85 86 100 99 105 98 95 91 79 58 78 66 62 37 318 308 278 245 230 201 224 252 264
65 60 68 89 132 143 157 166 163 159 161 147 138 130 117 112 105 103 87 75 81 79 78 87 89 90 93 91 83 78 105 117 69 48 57 332 313 345 309 254 259 253 252
60 59 55 46 70 116 141 139 142 144 146 143 149 150 146 135 121 109 99 84 74 76 77 79 80 80 78 73 66 59 58 82 88 70 56 60 60 352 328 311 287 267 251
54 52 49 48 49 58 86 91 102 107 112 118 131 132 125 115 109 106 101 90 81 80 84 84 84 82 80 79 72 65 57 55 60 60 55 39 31 228 255 293 312 303 272
59 54 49 48 51 55 64 72 80 80 87 92 101 108 113 112 114 111 106 97 90 83 81 82 81 82 82 78 74 69 66 63 63 54 43 24 351 323 295 292 303 304 309
66 58 52 50 52 56 63 70 75 73 74 79 80 88 98 103 105 105 102 100 94 86 80 81 79 79 79 79 78 76 70 60 49 31 17 8 339 316 306 303 304 302 298
68 63 58 57 59 61 65 71 75 75 74 76 77 78 83 85 87 89 95 94 93 92 90 85 83 80 78 75 67 71 64 55 27 6 7 328 315 321 304 295 302 303 300
73 68 63 61 62 64 66 73 78 78 76 78 78 78 81 86 91 92 93 94 96 99 92 88 82 74 66 60 54 58 46 35 9 355 356 344 327 312 317 315 306 300 302
82 76 72 71 70 71 71 72 75 78 77 78 80 85 83 84 86 86 84 85 86 86 86 81 77 73 68 54 34 25 44 11 358 344 343 335 329 339 320 313 312 303 298
90 85 81 79 79 78 76 76 77 78 78 79 80 82 83 84 85 84 83 84 86 87 87 86 82 78 68 51 27 2 9 10 2 346 348 345 331 321 327 318 310 311 316
95 90 87 83 81 80 80 81 82 83 84 84 84 83 85 85 86 88 89 88 85 83 82 79 71 60 56 41 24 8 10 1 354 348 339 331 327 333 319 318 317 314 310
98 92 87 84 84 83 82 82 84 86 88 88 86 84 84 84 84 84 83 82 79 74 69 66 58 45 38 35 27 14 2 354 344 336 327 322 316 311 316 317 309 306 307
101 96 91 86 84 82 81 82 83 85 87 86 84 81 79 80 80 80 76 74 76 73 58 50 47 43 43 39 26 8 349 343 335 324 317 311 310 311 322 313 307 315 319
101 97 94 90 87 85 82 81 81 81 84 86 86 85 85 83 80 75 68 60 52 56 45 41 37 40 59 43 28 358 346 338 325 319 317 313 312 305 295 299 313 313 304
99 95 91 87 84 83 84 81 79 78 82 87 87 85 84 83 83 80 70 60 50 41 34 33 29 33 58 60 35 4 339 323 314 317 323 316 310 336 318 303 300 290 289
93 87 81 76 75 75 78 81 82 83 84 85 87 86 83 77 70 69 64 56 45 35 28 23 23 64 86 57 19 354 326 308 311 320 321 322 329 351 353 332 316 304 296
99 95 90 86 82 82 81 83 89 92 92 89 88 87 85 79 70 63 57 50 41 25 16 16 17 51 97 62 6 341 321 313 322 322 315 316 323 20 353 326 315 307 307
103 103 102 100 98 95 94 94 93 95 93 88 84 80 78 74 64 54 46 43 23 12 0 21 14 29 107 107 355 346 324 327 331 322 320 323 327 9 343 324 314 311 311
107 109 107 104 102 105 110 107 100 96 91 86 79 71 64 58 54 45 35 30 7 6 1 18 8 0 45 153 338 341 332 335 331 321 321 333 337 332 325 320 313 308 311
116 114 109 105 111 119 118 108 101 93 91 92 88 80 66 47 69 48 27 7 357 359 357 1 359 3 13 154 234 315 330 335 326 320 322 324 327 321 315 310 296 292 304
119 118 116 114 118 124 118 108 99 100 104 97 89 80 41 9 53 27 8 347 341 342 352 356 353 359 25 32 322 309 310 310 313 314 319 322 321 315 310 304 292 297 303
129 133 129 124 120 117 112 111 115 118 106 85 72 62 48 32 25 355 357 3 11 4 2 2 358 2 9 13 351 338 328 322 314 316 320 315 308 308 305 301 302 302 298
138 141 135 126 120 117 108 102 97 85 78 62 340 247 159 311 80 18 18 34 26 14 3 8 4 360 2 16 0 345 336 336 332 334 321 311 304 304 302 307 312 310 312
140 135 125 121 120 115 112 109 99 78 36 350 326 324 352 302 140 97 53 49 67 52 19 11 1 360 356 358 337 327 326 326 320 321 310 316 329 336 338 337 335 330 331
126 122 120 118 120 120 111 99 85 43 359 343 333 328 338 13 45 115 120 73 96 118 92 47 358 354 2 330 325 324 319 314 313 317 319 327 333 337 335 333 335 339 346